This is the latest recevied weather packets stored in our database for station/object K3RUP-1. If no packets are shown the sender has not sent any weather packets the latest 10 day(s).
| Time | Temp. | Humidity | Pressure | Rain* | Wind** | Luminosity | Snow |
|---|---|---|---|---|---|---|---|
| 1787948694 | 28.33° C | 74% | 1015.5 hPa | 0 mm | - | 131 W/m² | - |
| 1787948388 | 28.33° C | 76% | 1015.4 hPa | 0 mm | - | 178 W/m² | - |
| 1787948088 | 28.33° C | 76% | 1015.5 hPa | 0 mm | - | 228 W/m² | - |
| 1787947782 | 28.33° C | 77% | 1015.7 hPa | 0 mm | - | 123 W/m² | - |
| 1787947480 | 27.78° C | 77% | 1015.6 hPa | 0 mm | - | 140 W/m² | - |
| 1787947175 | 27.78° C | 77% | 1015.5 hPa | 0 mm | - | 159 W/m² | - |
| 1787946875 | 27.78° C | 77% | 1015.5 hPa | 0 mm | - | 148 W/m² | - |
| 1787946572 | 27.78° C | 77% | 1015.4 hPa | 0 mm | - | 217 W/m² | - |
| 1787946268 | 28.89° C | 74% | 1015.5 hPa | 0 mm | - | 70 W/m² | - |
| 1787945967 | 28.89° C | 75% | 1015.5 hPa | 0 mm | - | 107 W/m² | - |
| 1787945662 | 28.89° C | 75% | 1015.3 hPa | 0 mm | - | 120 W/m² | - |
| 1787945357 | 27.78° C | 75% | 1015.5 hPa | 0 mm | - | 143 W/m² | - |
| 1787945053 | 28.89° C | 74% | 1015.6 hPa | 0 mm | - | 78 W/m² | - |
| 1787944750 | 28.89° C | 75% | 1015.6 hPa | 0 mm | - | 379 W/m² | - |
| 1787944446 | 28.89° C | 74% | 1015.4 hPa | 0 mm | - | 554 W/m² | - |
| 1787944141 | 28.89° C | 74% | 1015.5 hPa | 0 mm | - | 551 W/m² | - |
| 1787943836 | 28.89° C | 75% | 1015.6 hPa | 0 mm | - | 551 W/m² | - |
| 1787943531 | 28.89° C | 74% | 1015.6 hPa | 0 mm | - | 546 W/m² | - |
| 1787943227 | 29.44° C | 75% | 1015.6 hPa | 0 mm | - | 554 W/m² | - |
| 1787942925 | 29.44° C | 74% | 1015.6 hPa | 0 mm | - | 534 W/m² | - |
| 1787942622 | 28.89° C | 76% | 1015.6 hPa | 0 mm | - | 576 W/m² | - |
| 1787942321 | 28.89° C | 76% | 1015.6 hPa | 0 mm | - | 568 W/m² | - |
| 1787942016 | 28.33° C | 77% | 1015.8 hPa | 0 mm | - | 599 W/m² | - |
| 1787941712 | 28.89° C | 76% | 1015.6 hPa | 0 mm | - | 608 W/m² | - |
| 1787941410 | 28.89° C | 76% | 1015.8 hPa | 0 mm | - | 621 W/m² | - |
* Rain latest hour (hover to see other rain measurements)
** Current wind speed in m/s (hover to see current wind gust speed)